Weather History for Louisville, KY

Change the Weather History Date:

Wednesday, April 2, 2014

  Actual Average Record
Temperature  
Mean Temperature 59 °F 54 °F  
Max Temperature 66 °F 64 °F 87 °F (1946)
Min Temperature 51 °F 43 °F 25 °F (1961)
Degree Days  
Heating Degree Days 6 12  
Month to date heating degree days 6 24  
Since 1 July heating degree days 4308 3803  
Cooling Degree Days 0 1  
Month to date cooling degree days 3 2  
Year to date cooling degree days 3 8  
Growing Degree Days 8 (Base 50)    
Moisture  
Dew Point 46 °F    
Average Humidity 62    
Maximum Humidity 80    
Minimum Humidity 44    
Precipitation  
Precipitation T in 0.13 in 0.89 in (1979)
Month to date precipitation 0.10 0.26  
Year to date precipitation 8.56 10.85  
Snow  
Snow 0.00 in 0.00 in 0.70 in (1992)
Month to date snowfall 0.0 0.0  
Since 1 July snowfall 25.9 12.4  
Snow Depth 0.00 in    
Sea Level Pressure  
Sea Level Pressure 30.05 in    
Wind  
Wind Speed 8 mph (ENE)    
Max Wind Speed 18 mph    
Max Gust Speed 32 mph    
Visibility 10 miles    
Events Rain    
T = Trace of Precipitation, MM = Missing Value Source: NWS Daily Summary

Daily Weather History Graph

Daily Weather History Graph

Search for Another Location

Airport:

Trip Planner

Search our weather history database for the weather conditions in past years. The results will help you decide how hot, cold, wet, or windy it might be!

Date:

Astronomy

Apr. 02, 2014 Rise Set
Actual Time 7:26 AM EDT 8:07 PM EDT
Civil Twilight 6:59 AM EDT 8:33 PM EDT
Nautical Twilight 6:28 AM EDT 9:05 PM EDT
Astronomical Twilight 5:56 AM EDT 9:37 PM EDT
Moon 9:12 AM EDT (4/2) 11:26 PM EDT (4/2)
Length of Visible Light 13h 33m
Length of Day
12h 40m
Waxing Crescent, 10% of the Moon is Illuminated
Apr 2
Waxing Crescent
Apr 7
First Quarter
Apr 15
Full
Apr 22
Last Quarter
Apr 29
New

Hourly Weather History & Observations

Time (EDT) Temp. Dew Point Humidity Pressure Visibility Wind Dir Wind Speed Gust Speed Precip Events Conditions
12:56 AM 55.0 °F 43.0 °F 64% 30.03 in 10.0 mi Calm Calm - N/A   Mostly Cloudy
1:56 AM 54.0 °F 43.0 °F 66% 30.04 in 10.0 mi Calm Calm - N/A   Mostly Cloudy
2:56 AM 53.1 °F 45.0 °F 74% 30.04 in 10.0 mi Calm Calm - N/A   Mostly Cloudy
3:56 AM 53.1 °F 43.0 °F 69% 30.05 in 10.0 mi NNE 5.8 mph - N/A   Mostly Cloudy
4:56 AM 53.1 °F 42.1 °F 66% 30.06 in 10.0 mi NNE 5.8 mph - N/A   Mostly Cloudy
5:56 AM 52.0 °F 42.1 °F 69% 30.08 in 10.0 mi North 5.8 mph - N/A   Overcast
6:56 AM 51.1 °F 42.1 °F 71% 30.09 in 10.0 mi NE 6.9 mph - N/A   Mostly Cloudy
8:56 AM 52.0 °F 42.1 °F 69% 30.09 in 10.0 mi East 8.1 mph - N/A   Mostly Cloudy
9:56 AM 53.1 °F 42.1 °F 66% 30.15 in 10.0 mi North 15.0 mph - N/A   Mostly Cloudy
10:56 AM 52.0 °F 44.1 °F 74% 30.13 in 10.0 mi ENE 10.4 mph 20.7 mph N/A   Mostly Cloudy
11:56 AM 54.0 °F 43.0 °F 66% 30.09 in 10.0 mi East 8.1 mph - N/A   Overcast
12:56 PM 57.0 °F 43.0 °F 59% 30.07 in 10.0 mi SE 12.7 mph - N/A   Overcast
1:56 PM 62.1 °F 40.6 °F 45% 30.05 in 10.0 mi ESE 4.6 mph - N/A   Overcast
2:56 PM 63.0 °F 46.9 °F 56% 30.04 in 10.0 mi NNE 5.8 mph - N/A   Overcast
3:56 PM 66.0 °F 48.0 °F 52% 30.01 in 10.0 mi NNE 10.4 mph - N/A   Overcast
4:56 PM 64.0 °F 48.9 °F 58% 30.00 in 10.0 mi North 9.2 mph - N/A   Overcast
5:56 PM 61.0 °F 51.1 °F 70% 30.03 in 10.0 mi North 18.4 mph - N/A   Overcast
6:56 PM 57.0 °F 48.9 °F 74% 30.03 in 10.0 mi ENE 12.7 mph - N/A   Overcast
7:56 PM 57.9 °F 50.0 °F 75% 30.00 in 10.0 mi East 6.9 mph - 0.00 in Rain Light Rain
8:56 PM 57.9 °F 50.0 °F 75% 30.00 in 10.0 mi East 5.8 mph - 0.00 in   Mostly Cloudy
9:56 PM 57.0 °F 50.0 °F 77% 29.98 in 10.0 mi SE 6.9 mph - N/A   Scattered Clouds
10:56 PM 57.9 °F 50.0 °F 75% 29.98 in 10.0 mi SE 9.2 mph - N/A   Mostly Cloudy
11:56 PM 57.9 °F 51.1 °F 78% 29.98 in 10.0 mi ENE 3.5 mph - N/A   Mostly Cloudy